Weather History for Stevensville, MD

Change the Weather History Date:

Monday, April 14, 2014

  Actual Average (KESN) Record (KESN)
Temperature  
Mean Temperature 66 °F -  
Max Temperature 73 °F 69 °F 85 °F (1960)
Min Temperature 60 °F 42 °F 25 °F (1950)
Cooling Degree Days 2    
Growing Degree Days 16 (Base 50)    
Moisture  
Dew Point 55 °F    
Average Humidity 66    
Maximum Humidity 82    
Minimum Humidity 47    
Precipitation  
Precipitation 0.00 in - - ()
Sea Level Pressure  
Sea Level Pressure 29.95 in    
Wind  
Wind Speed 14 mph (SSE)    
Max Wind Speed 18 mph    
Max Gust Speed 28 mph    
Visibility 10 miles    
Events      
Averages and records for this station are not official NWS values.
T = Trace of Precipitation, MM = Missing Value Source: NWS Daily Summary

Daily Weather History Graph

Daily Weather History Graph

Search for Another Location

Airport:

Trip Planner

Search our weather history database for the weather conditions in past years. The results will help you decide how hot, cold, wet, or windy it might be!

Date:

Astronomy

Apr. 14, 2014 Rise Set
Actual Time 6:30 AM EDT 7:41 PM EDT
Civil Twilight 6:02 AM EDT 8:09 PM EDT
Nautical Twilight 5:29 AM EDT 8:42 PM EDT
Astronomical Twilight 4:55 AM EDT 9:16 PM EDT
Moon 7:18 PM EDT (4/14) 6:00 AM EDT (4/14)
Length of Visible Light 14h 06m
Length of Day
13h 11m
Full, 100% of the Moon is Illuminated
Apr 14
Full
Apr 15
Full
Apr 22
Last Quarter
Apr 29
New
May 6
First Quarter

Hourly Weather History & Observations

Time (EDT) Temp. Dew Point Humidity Pressure Visibility Wind Dir Wind Speed Gust Speed Precip Events Conditions
12:07 AM 64.4 °F 55.4 °F 73% 30.02 in 10.0 mi South 17.3 mph 25.3 mph N/A   Clear
12:27 AM 64.4 °F 57.2 °F 77% 30.03 in 10.0 mi South 13.8 mph 21.9 mph N/A   Clear
12:47 AM 64.4 °F 57.2 °F 77% 30.03 in 10.0 mi South 17.3 mph 23.0 mph N/A   Clear
1:07 AM 62.6 °F 57.2 °F 82% 30.03 in 10.0 mi South 13.8 mph 19.6 mph N/A   Clear
1:27 AM 62.6 °F 57.2 °F 82% 30.03 in 10.0 mi South 12.7 mph 21.9 mph N/A   Clear
1:47 AM 62.6 °F 57.2 °F 82% 30.02 in 10.0 mi South 15.0 mph 21.9 mph N/A   Clear
2:07 AM 62.6 °F 57.2 °F 82% 30.02 in 10.0 mi South 15.0 mph 21.9 mph N/A   Clear
2:27 AM 62.6 °F 55.4 °F 77% 30.02 in 10.0 mi South 13.8 mph - N/A   Clear
2:47 AM 62.6 °F 55.4 °F 77% 30.01 in 10.0 mi South 12.7 mph 20.7 mph N/A   Clear
3:07 AM 62.6 °F 55.4 °F 77% 30.01 in 10.0 mi South 13.8 mph 19.6 mph N/A   Clear
3:27 AM 64.4 °F 55.4 °F 73% 30.00 in 10.0 mi South 12.7 mph - N/A   Clear
3:47 AM 62.6 °F 53.6 °F 72% 30.00 in 10.0 mi South 12.7 mph 17.3 mph N/A   Clear
4:07 AM 62.6 °F 53.6 °F 72% 29.99 in 10.0 mi South 15.0 mph - N/A   Clear
4:27 AM 62.6 °F 53.6 °F 72% 30.00 in 10.0 mi South 8.1 mph - N/A   Clear
4:47 AM 64.4 °F 53.6 °F 68% 30.00 in 10.0 mi South 10.4 mph - N/A   Clear
5:07 AM 62.6 °F 53.6 °F 72% 30.00 in 10.0 mi South 15.0 mph 18.4 mph N/A   Clear
5:27 AM 62.6 °F 53.6 °F 72% 30.00 in 10.0 mi South 11.5 mph - N/A   Clear
5:47 AM 62.6 °F 53.6 °F 72% 30.00 in 10.0 mi South 10.4 mph 17.3 mph N/A   Clear
6:07 AM 62.6 °F 53.6 °F 72% 29.99 in 10.0 mi South 11.5 mph - N/A   Clear
6:27 AM 62.6 °F 53.6 °F 72% 29.99 in 10.0 mi South 13.8 mph 18.4 mph N/A   Clear
6:47 AM 62.6 °F 55.4 °F 77% 29.99 in 10.0 mi South 13.8 mph 18.4 mph N/A   Clear
7:07 AM 62.6 °F 55.4 °F 77% 30.00 in 10.0 mi South 12.7 mph 18.4 mph N/A   Clear
7:27 AM 60.8 °F 55.4 °F 82% 30.00 in 10.0 mi South 9.2 mph 16.1 mph N/A   Clear
8:28 AM 64.4 °F 55.4 °F 73% 30.01 in 10.0 mi South 12.7 mph 21.9 mph N/A   Clear
8:48 AM 64.4 °F 55.4 °F 73% 30.00 in 10.0 mi South 16.1 mph 23.0 mph N/A   Clear
9:08 AM 64.4 °F 55.4 °F 73% 30.00 in 10.0 mi South 16.1 mph 21.9 mph N/A   Clear
9:28 AM 64.4 °F 55.4 °F 73% 30.00 in 10.0 mi South 12.7 mph 21.9 mph N/A   Clear
9:48 AM 66.2 °F 55.4 °F 68% 30.00 in 10.0 mi South 16.1 mph 20.7 mph N/A   Clear
10:08 AM 66.2 °F 55.4 °F 68% 30.00 in 10.0 mi South 18.4 mph 27.6 mph N/A   Clear
10:28 AM 66.2 °F 55.4 °F 68% 30.01 in 10.0 mi South 15.0 mph 21.9 mph N/A   Clear
11:08 AM 68.0 °F 55.4 °F 64% 30.01 in 10.0 mi South 17.3 mph 25.3 mph N/A   Mostly Cloudy
11:28 AM 68.0 °F 55.4 °F 64% 30.00 in 10.0 mi South 12.7 mph 20.7 mph N/A   Mostly Cloudy
11:48 AM 69.8 °F 55.4 °F 60% 30.00 in 10.0 mi South 15.0 mph 19.6 mph N/A   Scattered Clouds
12:08 PM 69.8 °F 55.4 °F 60% 29.99 in 10.0 mi South 16.1 mph 21.9 mph N/A   Scattered Clouds
12:28 PM 71.6 °F 55.4 °F 57% 29.98 in 10.0 mi South 15.0 mph 21.9 mph N/A   Scattered Clouds
12:48 PM 71.6 °F 55.4 °F 57% 29.97 in 10.0 mi South 16.1 mph 20.7 mph N/A   Clear
1:08 PM 71.6 °F 53.6 °F 53% 29.96 in 10.0 mi South 18.4 mph 26.5 mph N/A   Clear
1:28 PM 71.6 °F 53.6 °F 53% 29.95 in 10.0 mi South 16.1 mph 23.0 mph N/A   Clear
1:48 PM 71.6 °F 53.6 °F 53% 29.94 in 10.0 mi South 17.3 mph 26.5 mph N/A   Clear
2:08 PM 71.6 °F 53.6 °F 53% 29.94 in 10.0 mi South 17.3 mph 24.2 mph N/A   Clear
2:28 PM 71.6 °F 51.8 °F 50% 29.93 in 10.0 mi South 15.0 mph 24.2 mph N/A   Clear
2:48 PM 73.4 °F 53.6 °F 50% 29.93 in 10.0 mi South 12.7 mph 19.6 mph N/A   Clear
3:08 PM 73.4 °F 53.6 °F 50% 29.92 in 10.0 mi SSE 13.8 mph 23.0 mph N/A   Clear
3:28 PM 73.4 °F 53.6 °F 50% 29.91 in 10.0 mi South 13.8 mph 21.9 mph N/A   Clear
3:48 PM 73.4 °F 51.8 °F 47% 29.91 in 10.0 mi South 18.4 mph 23.0 mph N/A   Clear
4:08 PM 71.6 °F 51.8 °F 50% 29.90 in 10.0 mi South 12.7 mph 20.7 mph N/A   Clear
4:28 PM 71.6 °F 51.8 °F 50% 29.89 in 10.0 mi South 13.8 mph 19.6 mph N/A   Clear
4:48 PM 71.6 °F 51.8 °F 50% 29.89 in 10.0 mi SSE 13.8 mph - N/A   Clear
5:08 PM 71.6 °F 51.8 °F 50% 29.88 in 10.0 mi SSE 11.5 mph 19.6 mph N/A   Clear
5:28 PM 69.8 °F 51.8 °F 53% 29.87 in 10.0 mi South 13.8 mph - N/A   Clear
5:49 PM 69.8 °F 51.8 °F 53% 29.88 in 10.0 mi SSE 11.5 mph 18.4 mph N/A   Clear
6:09 PM 69.8 °F 51.8 °F 53% 29.87 in 10.0 mi SSE 12.7 mph - N/A   Clear
6:29 PM 69.8 °F 51.8 °F 53% 29.87 in 10.0 mi SSE 12.7 mph 18.4 mph N/A   Clear
6:49 PM 69.8 °F 51.8 °F 53% 29.87 in 10.0 mi SSE 8.1 mph - N/A   Clear
7:09 PM 69.8 °F 51.8 °F 53% 29.86 in 10.0 mi SSE 11.5 mph 17.3 mph N/A   Clear
7:29 PM 68.0 °F 53.6 °F 60% 29.87 in 10.0 mi SSE 15.0 mph 18.4 mph N/A   Clear
7:49 PM 68.0 °F 55.4 °F 64% 29.85 in 10.0 mi SSE 13.8 mph 18.4 mph N/A   Clear
8:09 PM 68.0 °F 57.2 °F 68% 29.85 in 10.0 mi SSE 17.3 mph - N/A   Clear
8:29 PM 68.0 °F 57.2 °F 68% 29.86 in 10.0 mi SSE 13.8 mph 20.7 mph N/A   Clear
8:49 PM 66.2 °F 57.2 °F 73% 29.86 in 10.0 mi SSE 12.7 mph 23.0 mph N/A   Clear
9:09 PM 66.2 °F 57.2 °F 73% 29.87 in 10.0 mi SSE 12.7 mph 17.3 mph N/A   Clear
9:29 PM 66.2 °F 57.2 °F 73% 29.86 in 10.0 mi SSE 11.5 mph - N/A   Clear
9:49 PM 66.2 °F 57.2 °F 73% 29.86 in 10.0 mi SSE 15.0 mph - N/A   Clear
10:09 PM 64.4 °F 57.2 °F 77% 29.86 in 10.0 mi SSE 12.7 mph - N/A   Clear
10:29 PM 64.4 °F 57.2 °F 77% 29.84 in 10.0 mi SSE 10.4 mph 19.6 mph N/A   Clear
10:49 PM 64.4 °F 57.2 °F 77% 29.84 in 10.0 mi SE 10.4 mph - N/A   Scattered Clouds
11:09 PM 64.4 °F 57.2 °F 77% 29.84 in 10.0 mi SSE 10.4 mph - N/A   Scattered Clouds
11:29 PM 64.4 °F 55.4 °F 73% 29.84 in 10.0 mi SSE 11.5 mph - N/A   Scattered Clouds
11:49 PM 66.2 °F 55.4 °F 68% 29.84 in 10.0 mi South 13.8 mph 21.9 mph N/A   Scattered Clouds